Temp
72 60 55 60 65 66 65 62 60 65 70 64 62 62 67 72 71 70 68 69 70 71 72 74 75 74 74 70 68 67 65 64 64 67 68 68 68 72 72 73 71 73 75 77
65 57 68 74 71 68 66 61 58 64 71 65 61 62 68 70 67 68 68 68 69 69 70 72 72 72 71 70 67 66 65 64 64 65 67 68 69 72 72 73 72 73 76 75
60 67 78 74 68 67 62 58 58 58 64 65 61 56 62 71 70 72 71 70 71 68 67 69 72 70 69 68 66 66 65 64 63 64 67 68 69 70 70 72 73 73 72 69
65 74 73 66 67 66 56 67 65 62 55 46 58 46 60 62 65 66 67 66 68 69 70 71 71 69 69 68 69 66 65 64 65 63 65 63 62 63 66 69 68 66 66 65
64 68 66 65 66 69 61 67 62 61 55 48 54 45 51 61 58 60 62 63 63 63 63 63 66 70 69 68 65 64 64 63 63 61 63 63 61 62 64 65 64 63 64 64
68 76 71 68 72 71 70 62 58 55 50 39 49 47 44 50 54 56 57 60 61 61 62 63 63 65 65 66 64 61 59 57 59 60 61 59 59 59 59 61 62 63 64 63
65 67 71 74 64 67 62 50 36 36 37 38 56 48 43 55 58 59 58 58 59 59 59 60 61 61 61 60 61 62 57 56 57 58 60 59 57 57 58 59 61 61 62 62
50 51 66 72 63 55 54 49 39 30 32 38 54 42 47 60 61 61 61 58 58 56 57 61 57 57 57 59 59 58 58 58 57 58 59 60 57 57 57 59 60 62 62 62
48 54 68 71 69 63 54 46 54 44 44 36 44 50 56 61 59 60 59 57 54 55 56 56 56 54 54 54 58 57 57 58 59 59 59 57 57 56 58 58 58 59 60 61
55 45 63 69 69 65 58 61 42 41 30 29 41 43 44 50 50 56 55 53 54 55 55 54 54 53 54 54 54 55 59 60 59 59 59 58 57 56 57 57 57 56 56 56
55 49 52 60 55 52 53 48 48 45 41 30 29 36 53 54 52 51 53 53 53 53 54 54 54 54 54 54 55 58 61 60 57 60 58 57 57 57 56 56 55 54 54 54
53 47 40 49 61 65 58 50 49 34 37 39 32 38 56 54 57 55 54 55 53 53 54 55 55 55 55 56 59 61 59 58 59 59 58 55 56 55 55 54 53 52 51 53
51 41 31 40 50 58 54 57 52 47 42 36 30 36 61 57 54 53 52 53 56 55 55 55 54 55 57 56 58 59 56 55 57 57 55 54 55 53 53 54 51 52 51 52
55 42 40 33 43 50 46 53 55 47 30 41 41 46 50 51 52 53 52 53 52 54 54 53 53 53 55 56 55 56 54 54 55 55 53 52 53 54 53 52 50 51 51 50
49 40 44 48 52 52 52 52 54 49 47 37 45 46 48 50 50 52 55 54 54 53 54 53 52 51 53 53 53 54 53 54 53 54 53 52 53 54 52 50 50 48 49 49
49 35 43 43 51 53 48 52 53 54 53 50 49 45 53 51 53 53 52 54 51 52 54 54 55 54 54 55 54 54 52 52 53 55 54 56 56 52 49 48 47 47 47 47
44 39 37 34 47 45 36 48 51 53 54 50 39 43 50 49 51 49 48 50 50 51 53 53 51 52 52 51 53 50 52 52 52 53 54 56 53 50 48 47 47 45 45 45
40 37 39 29 38 23 45 56 57 54 52 50 48 49 50 48 50 51 49 47 49 51 50 51 51 49 51 52 51 51 51 52 52 52 52 51 50 47 46 46 45 44 45 44
48 41 31 26 25 40 48 53 51 47 44 50 47 49 50 50 49 48 52 51 50 51 50 52 51 52 52 51 52 50 50 51 51 52 50 49 48 45 45 44 43 44 44 45
52 45 34 32 26 27 45 54 57 54 35 50 49 47 46 46 36 41 48 50 50 50 49 49 50 50 49 48 50 50 49 50 50 49 47 47 46 45 43 43 43 44 45 45
40 42 37 35 33 38 52 55 57 37 35 48 49 47 45 41 43 45 49 47 47 48 48 48 48 47 48 49 49 48 48 48 48 48 46 45 45 44 44 44 44 44 45 44
41 37 34 36 33 32 58 54 41 45 48 49 47 47 45 45 47 47 47 46 46 48 48 48 46 46 46 48 47 46 46 47 47 46 45 44 44 45 45 44 45 45 45 47
36 43 36 42 38 48 53 52 54 50 47 47 47 48 45 45 47 49 44 44 45 48 48 47 45 44 46 47 48 45 47 46 45 45 43 43 44 45 46 46 47 47 47 46
48 52 40 42 47 48 51 53 51 50 48 51 49 47 48 46 48 47 43 43 44 47 44 45 43 43 43 46 47 47 46 46 45 43 43 43 44 44 44 45 45 46 45 43
46 47 45 43 48 49 52 52 52 52 49 49 48 47 45 45 44 42 41 41 45 42 43 43 42 43 43 46 46 46 46 46 44 43 43 44 45 44 45 43 43 42 37 41
46 43 37 36 46 45 47 50 51 49 47 47 45 45 46 44 41 44 43 44 40 41 43 43 43 44 45 45 45 45 47 47 45 43 42 45 48 46 43 40 40 42 41 42
MSLP
1007.26 1008.01 1008.16 1008.13 1008.17 1008.37 1008.67 1008.83 1008.83 1008.44 1008.53 1008.63 1008.92 1008.80 1008.10 1007.42 1007.07 1007.22 1007.78 1008.08 1008.57 1009.24 1009.53 1009.80 1010.12 1010.64 1011.07 1011.45 1011.66 1011.89 1012.04 1011.87 1011.71 1011.67 1011.36 1010.67 1010.07 1009.05 1008.20 1007.70 1007.06 1006.50 1005.98 1005.27
1007.50 1007.74 1007.75 1007.81 1007.95 1008.26 1008.70 1009.05 1009.42 1009.05 1008.98 1009.40 1009.53 1009.34 1008.29 1007.57 1007.36 1007.52 1008.10 1008.64 1008.93 1009.47 1009.97 1010.38 1010.75 1011.15 1011.51 1011.60 1011.87 1012.29 1012.14 1011.88 1011.68 1011.65 1011.59 1011.26 1010.47 1009.44 1008.40 1007.50 1006.61 1005.95 1005.21 1005.03
1007.59 1007.73 1007.47 1007.65 1008.02 1008.46 1008.98 1009.78 1010.10 1010.60 1010.41 1010.38 1010.27 1010.10 1008.76 1007.44 1007.76 1007.61 1008.09 1008.67 1009.22 1010.02 1010.63 1010.93 1011.13 1011.65 1011.80 1012.16 1012.56 1012.67 1012.35 1012.10 1012.05 1011.92 1011.68 1011.12 1010.47 1009.82 1008.85 1007.85 1006.93 1006.20 1005.33 1005.43
1007.76 1007.52 1007.53 1007.86 1008.31 1008.85 1009.62 1010.02 1010.67 1011.26 1011.69 1011.72 1011.01 1011.06 1009.96 1008.46 1009.51 1009.06 1009.26 1010.12 1010.87 1010.92 1011.15 1011.72 1011.96 1012.92 1012.98 1013.71 1013.81 1013.54 1013.15 1012.73 1012.65 1012.39 1012.20 1012.02 1011.91 1011.16 1010.33 1009.20 1008.26 1007.57 1006.82 1006.40
1008.21 1007.90 1007.80 1008.31 1008.86 1009.32 1010.15 1010.36 1011.10 1011.71 1012.08 1012.41 1012.32 1011.78 1012.77 1011.21 1011.81 1012.27 1012.66 1012.94 1012.84 1013.52 1013.98 1013.95 1013.69 1013.66 1013.93 1014.13 1014.34 1014.07 1013.94 1014.11 1013.71 1013.13 1012.48 1012.56 1012.61 1012.34 1011.22 1010.00 1009.00 1008.15 1007.39 1007.15
1008.64 1007.95 1007.97 1008.49 1009.04 1009.61 1010.26 1011.05 1011.66 1011.97 1012.56 1013.21 1013.49 1012.93 1013.31 1012.67 1013.20 1013.70 1014.03 1014.20 1014.65 1014.84 1014.48 1014.58 1014.51 1014.46 1014.78 1014.56 1014.62 1014.27 1013.61 1014.19 1014.15 1013.51 1012.53 1012.30 1012.51 1012.59 1011.94 1010.75 1009.72 1008.99 1008.45 1008.10
1009.18 1008.36 1008.53 1008.80 1009.46 1010.00 1011.08 1012.42 1013.47 1013.93 1014.01 1014.54 1013.51 1013.43 1013.79 1013.62 1013.56 1013.71 1014.41 1015.11 1015.38 1015.37 1015.48 1015.57 1015.45 1015.40 1015.72 1015.80 1014.67 1014.03 1013.43 1013.74 1013.54 1013.38 1013.06 1012.85 1012.62 1012.43 1012.29 1011.50 1010.49 1009.74 1009.34 1008.87
1010.83 1010.05 1009.70 1009.74 1009.99 1010.72 1011.76 1013.11 1014.33 1015.09 1015.38 1015.33 1014.72 1013.86 1013.85 1013.33 1013.31 1013.51 1014.11 1014.91 1015.63 1015.89 1015.95 1016.10 1016.35 1016.30 1015.73 1015.06 1014.64 1014.46 1013.77 1013.69 1012.69 1012.99 1013.16 1012.91 1012.93 1012.52 1012.23 1011.74 1010.98 1010.07 1009.69 1009.36
1012.36 1011.47 1010.87 1010.56 1010.61 1011.33 1012.21 1013.30 1013.92 1015.09 1015.64 1015.73 1015.12 1014.57 1013.67 1013.43 1013.83 1014.23 1014.77 1015.12 1015.69 1016.01 1016.06 1016.27 1016.32 1016.36 1016.12 1015.54 1015.08 1014.85 1014.36 1013.81 1013.24 1012.90 1012.80 1012.82 1012.79 1012.72 1012.08 1011.64 1011.41 1010.88 1010.30 1009.90
1013.67 1013.65 1012.47 1011.58 1011.45 1011.72 1012.32 1012.95 1014.10 1015.64 1016.89 1016.88 1015.75 1015.10 1014.26 1014.28 1014.64 1014.72 1014.93 1015.62 1015.95 1016.27 1016.48 1016.84 1016.79 1016.57 1016.42 1015.96 1015.75 1015.47 1014.69 1014.01 1013.38 1013.15 1012.84 1012.77 1012.54 1012.54 1012.09 1011.65 1011.32 1011.28 1010.95 1010.64
1014.34 1014.93 1014.22 1013.38 1012.74 1012.77 1012.97 1013.35 1014.70 1016.24 1017.29 1017.65 1016.53 1015.59 1014.14 1014.29 1014.49 1014.76 1015.34 1015.81 1016.09 1016.56 1016.63 1016.80 1016.65 1016.24 1016.11 1015.78 1015.30 1014.89 1014.50 1014.22 1013.78 1013.54 1013.36 1012.88 1012.38 1012.03 1011.85 1011.67 1011.43 1011.36 1011.25 1010.87
1015.71 1016.09 1016.20 1015.13 1013.35 1013.23 1013.35 1013.93 1015.16 1017.10 1017.73 1017.72 1017.01 1015.42 1014.33 1014.49 1014.62 1014.92 1015.58 1016.04 1016.28 1016.30 1016.48 1016.41 1016.19 1016.04 1016.01 1015.85 1015.31 1015.13 1014.83 1014.48 1014.39 1013.79 1013.29 1013.06 1012.41 1011.97 1011.85 1011.71 1011.55 1011.15 1011.15 1010.86
1016.53 1017.41 1017.74 1016.27 1014.43 1013.93 1014.24 1014.75 1015.42 1016.28 1016.90 1017.31 1017.26 1015.64 1014.50 1014.74 1015.16 1015.44 1015.84 1016.05 1016.14 1016.25 1016.35 1016.33 1016.23 1016.20 1016.02 1015.78 1015.49 1015.26 1015.11 1014.83 1014.21 1013.66 1013.45 1013.12 1012.54 1012.05 1011.94 1011.74 1011.71 1011.37 1010.98 1010.73
1017.02 1018.30 1018.60 1018.17 1017.08 1016.59 1015.95 1015.56 1015.63 1016.03 1016.59 1016.38 1016.31 1015.30 1014.77 1015.13 1015.44 1015.72 1016.06 1016.22 1016.33 1016.42 1016.46 1016.49 1016.36 1016.28 1016.15 1015.92 1015.74 1015.45 1015.23 1014.99 1014.59 1014.02 1013.54 1013.13 1012.75 1012.44 1012.23 1012.20 1011.89 1011.65 1011.26 1010.95
1017.93 1018.96 1019.03 1018.74 1018.16 1017.32 1016.35 1015.56 1015.21 1015.28 1015.50 1015.88 1015.70 1015.81 1016.03 1015.98 1016.08 1016.41 1016.51 1016.54 1016.61 1016.68 1016.53 1016.47 1016.43 1016.26 1016.03 1015.82 1015.68 1015.62 1015.50 1015.28 1014.82 1014.19 1013.58 1013.10 1012.63 1012.42 1012.56 1012.54 1012.41 1012.03 1011.82 1011.61
1018.26 1019.12 1019.40 1019.25 1018.50 1017.33 1016.36 1015.52 1014.85 1014.43 1014.70 1015.27 1015.68 1016.64 1016.85 1016.82 1016.66 1016.81 1017.10 1017.02 1017.02 1017.00 1016.94 1016.79 1016.54 1016.28 1016.05 1015.84 1015.60 1015.43 1015.36 1015.11 1014.64 1014.06 1013.54 1012.97 1012.51 1012.67 1012.79 1012.92 1012.94 1012.38 1012.63 1012.60
1019.00 1019.97 1020.41 1020.07 1019.26 1018.29 1016.68 1015.84 1014.95 1014.54 1014.70 1015.28 1016.63 1017.39 1017.14 1017.23 1017.38 1017.44 1017.45 1017.45 1017.57 1017.50 1017.14 1016.93 1016.71 1016.34 1016.11 1015.79 1015.45 1015.40 1015.33 1014.88 1014.52 1014.04 1013.48 1012.93 1012.84 1013.09 1013.23 1013.31 1013.35 1013.11 1013.31 1013.34
1019.28 1020.42 1021.15 1021.18 1020.27 1019.25 1016.52 1015.46 1014.91 1014.80 1015.61 1016.17 1016.87 1017.31 1017.51 1017.61 1017.63 1017.58 1017.59 1017.78 1017.76 1017.48 1017.30 1017.11 1016.63 1016.34 1016.14 1015.70 1015.38 1015.18 1015.10 1014.70 1014.38 1013.92 1013.71 1013.60 1013.51 1013.71 1013.94 1014.07 1013.85 1013.77 1013.66 1013.73
1018.54 1020.39 1021.69 1021.80 1021.05 1019.37 1017.10 1016.04 1015.63 1015.77 1016.68 1016.90 1017.37 1017.59 1017.66 1017.73 1017.58 1017.60 1017.58 1017.72 1017.53 1017.42 1017.25 1016.96 1016.64 1016.33 1015.96 1015.62 1015.11 1014.86 1014.77 1014.52 1014.28 1013.92 1014.05 1014.13 1014.16 1014.37 1014.54 1014.55 1014.39 1014.13 1014.04 1014.20
1018.40 1019.69 1021.18 1021.71 1021.42 1019.66 1017.10 1016.49 1016.38 1016.28 1016.95 1017.46 1017.67 1017.88 1017.94 1018.08 1018.34 1018.19 1017.99 1017.84 1017.78 1017.75 1017.46 1017.05 1016.78 1016.47 1016.00 1015.64 1014.98 1014.71 1014.63 1014.48 1014.35 1014.48 1014.58 1014.69 1014.87 1015.06 1015.09 1014.94 1014.89 1014.81 1014.70 1014.34
1018.62 1019.99 1020.90 1021.22 1020.82 1019.28 1017.22 1016.89 1016.89 1017.60 1018.13 1017.58 1017.68 1017.97 1018.23 1018.53 1018.65 1018.20 1017.91 1017.80 1017.78 1017.63 1017.28 1017.06 1016.86 1016.72 1016.39 1015.80 1015.23 1014.92 1014.89 1014.75 1014.87 1015.00 1015.23 1015.46 1015.63 1015.66 1015.65 1015.51 1015.31 1015.03 1014.78 1014.56
1017.93 1019.27 1019.99 1020.17 1019.75 1018.37 1017.21 1016.91 1017.84 1017.86 1017.32 1017.52 1017.56 1017.74 1017.96 1018.14 1018.10 1017.98 1017.84 1017.77 1017.62 1017.43 1017.12 1017.10 1017.04 1016.81 1016.42 1016.13 1015.68 1015.51 1015.38 1015.39 1015.54 1015.73 1015.90 1016.08 1016.11 1016.16 1016.09 1015.85 1015.59 1015.22 1014.98 1014.85
1017.66 1018.03 1018.65 1018.89 1018.32 1017.04 1016.75 1016.85 1016.72 1017.09 1017.58 1017.53 1017.52 1017.59 1017.72 1017.83 1017.88 1017.85 1017.71 1017.90 1017.72 1017.40 1017.33 1017.30 1017.29 1016.86 1016.50 1016.21 1015.99 1015.82 1015.75 1015.88 1016.12 1016.36 1016.48 1016.70 1016.68 1016.64 1016.37 1015.98 1015.66 1015.46 1015.34 1015.21
1017.42 1017.31 1017.95 1018.01 1017.45 1017.13 1016.89 1016.63 1016.65 1016.75 1017.00 1017.23 1017.56 1017.75 1017.90 1017.96 1017.91 1017.79 1017.84 1017.95 1017.66 1017.43 1017.45 1017.41 1017.22 1016.92 1016.56 1016.22 1015.97 1015.90 1016.18 1016.43 1016.76 1016.90 1017.18 1017.20 1017.09 1016.83 1016.50 1016.17 1015.95 1015.91 1015.93 1015.77
1017.64 1017.14 1017.53 1017.76 1017.46 1017.18 1016.94 1016.91 1016.76 1016.92 1017.23 1017.57 1017.96 1018.20 1018.17 1018.08 1017.92 1017.88 1017.92 1017.87 1017.61 1017.55 1017.44 1017.40 1017.25 1016.98 1016.64 1016.26 1016.27 1016.55 1016.83 1016.95 1017.16 1017.49 1017.60 1017.55 1017.38 1017.20 1017.09 1017.04 1016.94 1016.76 1016.68 1016.12
1017.44 1017.49 1017.96 1017.94 1017.81 1017.72 1017.35 1017.17 1017.34 1017.44 1017.93 1018.16 1018.36 1018.19 1018.18 1018.33 1018.27 1018.09 1017.86 1017.70 1017.55 1017.42 1017.23 1017.21 1017.08 1016.95 1016.70 1016.77 1017.03 1017.26 1017.39 1017.40 1017.56 1017.84 1017.90 1017.83 1017.73 1017.65 1017.60 1017.58 1017.50 1017.00 1016.59 1016.29
Wind_Speed
10 2 0 4 4 3 4 6 7 6 7 6 8 8 11 12 10 9 11 9 9 10 8 8 7 7 6 5 6 5 6 5 5 6 9 11 12 12 9 8 8 9 8 10
5 3 4 4 3 5 7 6 6 6 11 10 11 15 14 11 2 8 9 8 9 8 8 9 9 8 5 2 6 6 5 5 4 4 6 6 10 12 10 9 11 12 13 10
3 4 4 5 6 6 5 7 8 7 9 8 6 10 10 15 8 9 8 8 7 10 9 8 8 7 7 11 7 4 4 7 5 8 7 10 11 11 10 12 10 10 12 8
4 6 3 1 3 8 5 8 9 8 6 4 2 10 15 2 13 4 7 6 8 8 10 8 6 14 15 12 12 10 7 8 8 8 9 13 11 13 11 11 12 7 10 8
8 9 8 6 5 8 5 1 5 8 10 4 9 3 6 16 14 19 19 17 23 20 18 17 20 16 9 10 8 8 12 11 10 8 10 9 12 11 10 10 13 12 8 6
10 8 5 2 5 4 5 9 8 5 2 2 2 1 6 6 7 11 11 13 10 10 12 13 12 11 11 9 8 6 9 6 8 8 7 8 10 12 12 12 9 8 7 7
11 2 5 6 3 8 9 7 6 6 6 5 15 8 2 3 6 9 9 9 9 9 11 12 14 12 10 10 9 8 6 4 4 7 7 7 7 8 12 12 7 8 7 5
4 1 7 5 2 1 4 2 4 5 3 5 5 4 1 5 6 7 9 7 7 7 5 6 8 9 8 7 7 9 8 7 4 5 6 5 5 5 5 8 8 6 7 9
7 6 14 10 6 6 4 3 5 1 5 4 4 5 3 9 6 8 8 10 8 9 9 8 8 7 7 7 4 7 11 7 7 2 2 4 4 6 6 7 6 5 7 7
5 5 7 5 2 3 7 7 4 5 2 6 3 4 5 8 5 6 6 8 8 8 8 7 5 4 5 6 5 8 12 7 7 7 4 2 2 4 5 5 6 6 5 6
5 3 9 9 2 4 8 4 4 3 3 3 4 5 6 13 5 6 9 7 7 6 6 4 4 4 7 7 6 7 6 8 8 8 7 7 6 5 6 5 4 6 5 7
3 1 3 8 20 14 3 1 1 5 7 6 5 9 4 3 5 14 8 8 4 3 3 5 6 6 6 7 7 8 9 9 11 11 10 7 7 7 6 5 5 5 6 7
1 3 4 12 6 8 5 10 6 4 1 4 2 8 8 7 8 7 9 5 3 2 5 7 6 6 7 6 7 7 7 7 8 9 7 8 10 9 7 5 6 6 7 8
7 1 6 6 7 8 9 15 13 7 2 9 7 12 5 6 6 6 7 7 5 5 7 5 5 6 6 5 6 7 6 7 8 9 7 7 9 9 5 4 5 6 7 8
6 3 2 7 11 14 17 19 16 9 7 4 9 6 6 8 8 8 7 7 7 7 7 6 6 6 6 5 5 7 7 9 7 11 8 8 9 3 4 4 4 6 8 9
4 3 2 6 11 10 16 16 14 12 5 6 7 7 7 5 7 9 9 10 7 9 11 11 9 7 9 6 3 4 7 10 9 11 11 10 9 5 5 4 4 8 8 8
3 3 3 5 10 15 9 10 14 8 5 5 6 4 11 12 10 7 7 8 7 9 11 10 7 8 9 6 4 4 8 9 9 9 11 9 5 7 6 5 6 8 7 6
4 3 2 4 5 2 8 17 8 9 13 12 9 8 6 5 6 6 6 5 7 9 9 9 8 7 9 7 5 3 8 7 9 8 7 7 7 7 6 5 6 6 4 3
8 5 1 3 2 8 12 5 7 5 3 8 6 8 7 9 8 6 6 5 6 6 8 10 8 11 11 11 11 4 6 6 7 5 6 6 7 7 5 6 4 5 5 3
8 6 6 1 2 4 4 12 15 9 4 6 5 6 5 6 6 6 7 7 7 10 11 9 9 11 9 9 9 5 5 4 4 5 7 8 7 6 5 5 5 3 2 3
5 2 4 3 4 7 1 8 8 2 7 6 5 5 6 3 4 7 7 6 6 10 9 7 7 9 11 9 9 5 5 4 6 7 8 7 6 5 3 3 3 3 4 3
5 8 6 5 4 5 7 3 5 8 8 8 3 4 5 4 6 6 7 8 8 11 8 7 7 8 9 8 5 5 5 7 7 7 8 7 5 4 3 3 4 4 2 4
3 3 3 4 5 7 2 5 7 1 1 4 5 6 2 5 6 7 7 7 7 9 7 5 9 9 8 6 4 5 4 8 7 8 8 6 5 3 4 5 3 1 3 4
5 5 3 2 2 5 6 6 4 3 4 5 7 6 7 6 9 10 6 7 7 7 6 8 8 7 7 6 5 4 8 8 8 9 6 4 3 5 5 4 5 6 5 4
6 2 4 6 8 9 6 7 6 8 8 6 6 5 6 8 9 5 6 6 7 5 8 6 6 5 6 5 8 8 8 9 9 7 4 3 3 6 7 6 4 5 3 3
1 2 2 4 6 6 8 6 7 9 7 6 6 9 8 7 7 6 6 6 5 9 9 6 4 4 4 9 9 8 7 9 8 5 2 1 4 4 4 4 4 6 5 8
Wind_Direction
206 125 345 98 53 27 318 322 310 305 24 38 344 337 306 288 278 280 107 119 118 117 131 115 106 118 120 149 130 100 54 3 17 4 356 346 333 320 303 296 279 289 258 210
334 236 98 74 6 353 302 318 340 350 2 15 339 302 278 284 203 116 111 111 125 116 87 78 70 61 60 3 111 89 70 31 21 9 353 344 329 320 302 297 288 281 274 221
28 151 104 34 346 320 333 43 11 354 344 325 304 314 309 291 129 132 120 121 118 115 101 90 71 57 28 18 78 102 76 48 26 16 360 358 348 341 343 336 329 329 331 25
291 141 108 249 316 50 2 17 14 334 339 288 11 288 298 352 25 40 119 61 35 114 82 62 59 55 50 30 23 8 29 40 24 24 18 16 359 343 336 339 337 348 21 24
265 352 54 20 32 35 267 339 282 278 274 339 344 28 1 42 40 47 48 43 41 39 49 41 37 34 36 36 34 38 25 14 7 13 31 18 2 345 334 343 348 351 349 28
262 269 148 114 30 318 340 9 329 291 265 75 252 265 345 21 44 71 54 45 58 46 31 29 32 25 24 33 17 23 42 28 5 345 10 43 13 343 340 347 5 1 3 357
321 302 84 106 26 19 23 17 334 346 14 250 356 5 236 60 77 79 74 76 51 45 44 39 25 16 12 347 16 3 25 357 352 347 349 22 14 358 341 339 344 15 359 2
333 57 19 31 124 256 5 44 156 287 330 271 287 251 223 72 111 89 84 90 85 68 65 45 55 22 1 13 356 344 331 325 10 327 353 14 1 358 332 331 333 4 15 18
20 300 358 342 63 86 349 342 227 320 287 28 241 38 137 46 67 57 82 78 52 33 26 28 23 11 331 348 358 304 289 311 327 298 351 355 357 349 338 335 324 359 32 33
27 328 309 314 59 238 180 226 351 338 305 277 257 320 285 34 65 55 22 79 65 43 24 28 14 356 314 299 283 282 269 300 348 337 355 343 358 330 332 338 344 349 20 22
40 136 297 357 298 331 332 7 21 122 122 235 312 251 355 319 152 150 86 84 76 56 10 345 288 282 253 272 300 313 8 2 352 4 352 357 343 335 338 340 8 347 14 29
354 121 283 271 280 271 246 9 83 122 270 245 214 273 269 56 100 98 94 96 86 169 195 278 280 288 311 323 334 6 22 14 352 355 352 342 336 333 331 16 3 12 15 23
2 349 8 327 2 32 31 340 315 264 165 206 224 271 306 75 68 88 97 109 148 353 326 302 341 15 358 353 8 12 357 348 341 343 336 332 327 326 324 52 16 16 16 13
87 93 181 204 277 319 309 312 300 270 154 266 243 284 316 63 71 54 50 37 19 6 19 28 3 355 2 353 347 340 354 345 332 325 326 319 318 316 56 36 40 25 24 26
124 194 265 298 308 297 284 280 287 292 273 284 278 337 54 48 50 37 20 8 10 12 359 3 344 337 334 343 355 6 351 340 329 317 318 306 300 80 77 55 48 47 38 42
181 253 297 304 287 309 322 311 301 287 303 13 18 89 71 40 32 27 358 348 11 5 352 336 331 335 327 329 343 350 348 329 318 315 318 319 334 97 86 57 46 64 53 48
59 75 49 269 346 323 315 15 330 301 355 55 46 24 27 17 10 344 23 25 3 341 328 331 331 330 326 302 305 341 334 306 318 321 319 331 87 72 68 60 55 59 54 54
118 100 134 263 337 290 250 328 317 6 60 55 44 15 356 327 312 319 81 24 343 326 334 332 326 313 312 307 286 307 296 304 312 317 25 44 63 74 66 65 60 58 52 50
132 127 221 143 193 261 289 5 22 23 48 50 20 343 1 0 331 338 36 343 316 344 323 321 315 317 318 315 307 251 278 289 316 334 48 48 65 72 69 69 66 46 39 23
147 127 127 313 194 266 289 32 4 331 268 4 355 323 337 359 344 310 356 337 340 347 329 324 337 330 317 321 309 270 289 310 347 57 65 71 69 69 59 46 46 9 330 350
135 130 218 230 250 278 352 64 323 339 256 317 308 341 346 328 242 283 324 348 334 329 332 334 337 336 337 336 335 358 352 38 75 85 84 79 75 73 49 38 16 1 349 357
169 161 208 195 208 260 5 35 121 229 267 280 353 324 299 322 304 300 319 323 325 336 333 334 344 327 323 330 2 9 22 84 90 88 82 71 50 41 29 348 314 321 23 58
340 104 214 157 239 298 323 191 221 206 212 312 298 288 254 296 293 307 317 329 323 326 333 351 330 319 319 327 340 335 99 107 102 89 77 61 45 12 319 318 342 329 80 66
315 331 288 5 293 305 329 330 45 3 281 326 30 3 344 327 322 316 331 324 323 328 339 328 323 320 321 327 323 101 111 105 97 93 84 72 21 18 20 29 26 44 27 38
243 255 321 309 334 341 345 323 313 335 63 31 1 339 324 308 309 335 321 321 316 334 319 321 310 312 317 332 95 101 112 114 103 100 105 53 31 66 64 50 23 69 15 77
21 255 109 237 286 268 286 354 32 54 25 5 341 319 324 351 338 332 316 310 314 309 307 306 289 303 340 100 96 104 112 124 124 118 89 70 93 74 69 66 36 26 85 59